1500786000.86,65251,21.69,74356.5,12.85,-12.65,-12.57,0,*47
1500786002.08,65252,21.69,74354.3,12.85,-13.65,-13.37,0,*42
1500786003.31,65253,21.69,74356.3,12.81,-13.61,-13.23,0,*46
1500786004.51,65254,21.69,74354.0,12.81,-13.65,-13.47,0,*47
1500786005.73,65255,21.69,74354.0,12.81,-13.79,-13.73,0,*4C
1500786006.96,65256,21.69,74352.8,12.77,-13.37,-13.11,0,*48
1500786008.21,65257,21.69,74354.8,12.77,-13.37,-13.29,0,*42
1500786009.44,65258,21.69,74354.3,12.77,-12.97,-12.83,0,*47
1500786010.65,65259,21.69,74354.5,12.77,-12.43,-12.29,0,*4F
1500786011.85,65260,21.69,74354.8,12.77,-12.43,-12.21,0,*4D
1500786013.1,65261,21.69,74354.0,12.77,-11.55,-11.33,0,*48
1500786014.38,65262,21.69,74352.3,12.75,-12.07,-11.81,0,*44
1500786015.66,65263,21.69,74354.0,12.75,-12.11,-12.07,0,*4F
1500786016.91,65264,21.69,74352.8,12.75,-11.55,-11.41,0,*4A
1500786018.15,65265,21.69,74354.3,12.77,-11.29,-11.01,0,*46
1500786019.37,65266,21.75,74358.8,12.79,-10.97,-10.85,0,*42
1500786020.63,65267,21.69,74356.0,12.79,-10.93,-10.79,0,*44
1500786021.86,65268,21.75,74358.8,12.79,-11.23,-10.93,0,*45
1500786023.09,65269,21.69,74358.3,12.81,-11.19,-11.07,0,*46
1500786024.34,65270,21.69,74352.3,12.83,-10.49,-10.41,0,*4B
1500786025.59,65271,21.69,74354.0,12.83,-11.19,-11.07,0,*4D
1500786026.83,65272,21.69,74352.0,12.81,-12.25,-12.07,0,*43
1500786028.06,65273,21.69,74354.0,12.83,-12.43,-12.29,0,*4C
1500786029.31,65274,21.69,74352.0,12.83,-12.89,-12.75,0,*44
1500786030.52,65275,21.75,74354.8,12.81,-13.07,-12.89,0,*43
1500786031.79,65276,21.75,74354.8,12.83,-11.97,-11.77,0,*4B
1500786033.05,65277,21.69,74352.0,12.81,-11.67,-11.55,0,*47
1500786034.3,65278,21.69,74356.8,12.83,-12.57,-12.43,0,*4E
1500786035.56,65279,21.69,74356.5,12.81,-11.77,-11.63,0,*4D
1500786036.79,65280,21.69,74354.8,12.83,-12.29,-12.03,0,*44
1500786038.05,65281,21.69,74352.0,12.81,-12.07,-11.89,0,*4A
1500786039.33,65282,21.75,74356.8,12.83,-11.89,-11.63,0,*4A
1500786040.55,65283,21.69,74354.3,12.81,-12.03,-11.81,0,*44
1500786041.79,65284,21.69,74354.8,12.81,-12.21,-11.93,0,*40
1500786043.07,65285,21.75,74358.3,12.83,-11.73,-11.59,0,*41
1500786044.3,65286,21.69,74354.3,12.83,-12.21,-12.03,0,*4A
1500786045.53,65287,21.69,74354.0,12.81,-12.03,-11.63,0,*4C
1500786046.81,65288,21.75,74356.8,12.83,-11.63,-11.51,0,*45
1500786048.08,65289,21.69,74358.8,12.83,-11.51,-11.33,0,*41
1500786049.31,65290,21.75,74356.8,12.83,-11.45,-11.23,0,*4D
1500786050.6,65291,21.69,74356.5,12.83,-11.33,-11.07,0,*4B
1500786051.8,65292,21.75,74358.3,12.85,-11.41,-11.19,0,*44
1500786052.99,65293,21.69,74354.8,12.85,-11.19,-11.01,0,*41
1500786054.19,65294,21.75,74356.5,12.85,-11.19,-11.01,0,*46
1500786055.42,65295,21.75,74360.0,12.85,-10.93,-10.71,0,*42
1500786056.67,65296,21.75,74358.8,12.87,-11.29,-11.11,0,*44
1500786057.89,65297,21.75,74356.8,12.87,-11.15,-10.85,0,*46
1500786059.17,65298,21.75,74358.0,12.87,-11.37,-11.07,0,*42
1500786060.42,65299,21.75,74356.0,12.87,-11.55,-11.23,0,*41
1500786061.69,65300,21.69,74356.3,12.89,-11.89,-11.63,0,*4B
1500786062.92,65301,21.75,74358.3,12.89,-11.77,-11.41,0,*4B
1500786064.15,65302,21.69,74358.3,12.89,-11.37,-11.23,0,*48
1500786065.4,65303,21.69,74358.0,12.87,-12.11,-12.03,0,*41
1500786066.66,65304,21.75,74358.5,12.87,-11.63,-11.41,0,*45
1500786067.91,65305,21.75,74358.8,12.89,-12.07,-11.77,0,*4E
1500786069.18,65306,21.69,74354.0,12.89,-11.89,-11.63,0,*4D
1500786070.4,65307,21.75,74354.0,12.89,-11.81,-11.41,0,*44
1500786071.68,65308,21.69,74352.3,12.91,-11.63,-11.51,0,*4F
1500786072.91,65309,21.75,74354.5,12.89,-11.55,-11.23,0,*47
1500786074.15,65310,21.69,74352.5,12.91,-11.45,-11.23,0,*47
1500786075.37,65311,21.75,74354.0,12.91,-11.11,-10.89,0,*46
1500786076.61,65312,21.75,74356.3,12.89,-11.37,-10.97,0,*47
1500786077.84,65313,21.75,74358.0,12.89,-11.55,-11.23,0,*4C
1500786079.07,65314,21.75,74356.5,12.91,-11.45,-11.23,0,*43
1500786080.34,65315,21.75,74356.5,12.91,-11.73,-11.33,0,*46
1500786081.59,65316,21.75,74356.5,12.91,-11.51,-11.19,0,*4D
1500786082.82,65317,21.69,74352.5,12.89,-12.03,-11.67,0,*48
1500786084.05,65318,21.75,74356.0,12.91,-12.47,-12.21,0,*4F
1500786085.28,65319,21.75,74358.3,12.89,-12.47,-12.11,0,*44
1500786086.52,65320,21.69,74358.3,12.89,-12.21,-11.81,0,*44
1500786087.75,65321,21.75,74362.0,12.89,-12.25,-11.89,0,*49
1500786088.99,65322,21.75,74358.0,12.89,-12.53,-12.25,0,*4E
1500786090.25,65323,21.69,74356.5,12.89,-11.93,-11.55,0,*44
1500786091.53,65324,21.75,74354.8,12.87,-11.89,-11.51,0,*42
1500786092.8,65325,21.75,74356.0,12.87,-11.67,-11.37,0,*43
1500786094.05,65326,21.75,74358.5,12.87,-12.21,-11.77,0,*45
1500786095.3,65327,21.75,74362.3,12.87,-12.61,-12.25,0,*44
1500786096.56,65328,21.75,74356.5,12.87,-12.21,-11.81,0,*42
1500786097.84,65329,21.69,74358.5,12.87,-12.35,-11.93,0,*45
1500786099.12,65330,21.75,74362.3,12.87,-12.53,-12.11,0,*44
1500786100.37,65331,21.75,74360.3,12.85,-11.97,-11.55,0,*4F
1500786101.62,65332,21.75,74360.8,12.87,-11.77,-11.41,0,*45
1500786102.85,65333,21.75,74356.8,12.85,-12.97,-12.57,0,*4F
1500786104.07,65334,21.75,74358.8,12.85,-12.79,-12.43,0,*4D
1500786105.3,65335,21.75,74356.5,12.85,-12.79,-12.29,0,*40
1500786106.53,65336,21.75,74354.3,12.87,-12.47,-12.21,0,*44
1500786107.79,65337,21.75,74356.0,12.83,-12.21,-11.77,0,*41
1500786109.04,65338,21.75,74358.3,12.83,-12.03,-11.63,0,*4B
1500786110.29,65339,21.75,74360.5,12.81,-11.85,-11.51,0,*44
1500786111.54,65340,21.75,74360.5,12.85,-11.97,-11.59,0,*45
1500786112.77,65341,21.75,74362.5,12.85,-12.39,-11.93,0,*45
1500786114.02,65342,21.75,74362.3,12.85,-12.07,-11.67,0,*40
1500786115.23,65343,21.75,74360.0,12.81,-12.47,-12.03,0,*40
1500786116.46,65344,21.75,74356.0,12.81,-14.19,-13.79,0,*46
1500786117.65,65345,21.75,74354.5,12.81,-13.93,-13.47,0,*4F
1500786118.85,65346,21.75,74356.5,12.77,-15.11,-14.69,0,*42
1500786120.1,65347,21.75,74360.3,12.75,-14.51,-14.11,0,*4B
1500786121.36,65348,21.75,74358.3,12.73,-14.05,-13.83,0,*4F
1500786122.59,65349,21.75,74352.5,12.69,-15.35,-14.89,0,*4A
1500786123.85,65350,21.75,74358.0,12.67,-14.19,-13.87,0,*4A
1500786125.08,65351,21.69,74352.5,12.67,-14.19,-13.73,0,*40
1500786126.34,65352,21.75,74358.3,12.65,-14.83,-14.43,0,*46
1500786127.62,65353,21.75,74354.0,12.63,-13.87,-13.33,0,*42
1500786128.86,65354,21.75,74360.0,12.61,-14.37,-14.05,0,*49
1500786130.08,65355,21.75,74352.5,12.59,-14.19,-13.79,0,*43
1500786131.32,65356,21.69,74350.8,12.57,-14.11,-13.65,0,*4B
1500786132.57,65357,21.75,74352.3,12.55,-13.79,-13.33,0,*42
1500786133.8,65358,21.75,74354.5,12.55,-14.23,-13.83,0,*4E
1500786135.02,65359,21.75,74354.8,12.55,-14.23,-13.79,0,*4A
1500786136.28,65360,21.75,74358.8,12.51,-13.83,-13.37,0,*43
1500786137.53,65361,21.75,74358.8,12.53,-13.69,-13.37,0,*44
1500786138.78,65362,21.75,74356.0,12.51,-14.83,-14.43,0,*42
1500786140.02,65363,21.75,74352.5,12.51,-15.29,-14.97,0,*4B
1500786141.25,65364,21.75,74356.5,12.45,-14.65,-14.23,0,*4F
1500786142.47,65365,21.69,74354.0,12.43,-14.75,-14.37,0,*4C
1500786143.7,65366,21.75,74352.8,12.41,-14.61,-14.23,0,*4D
1500786144.93,65367,21.75,74356.8,12.39,-14.75,-14.29,0,*4C
1500786146.16,65368,21.69,74348.8,12.37,-14.61,-14.15,0,*47
1500786147.41,65369,21.75,74354.3,12.37,-15.07,-14.51,0,*47
1500786148.64,65370,21.75,74358.8,12.35,-14.51,-14.11,0,*4B
1500786149.87,65371,21.75,74354.3,12.33,-15.11,-14.61,0,*4E
1500786151.13,65372,21.75,74354.3,12.33,-14.29,-14.01,0,*41
1500786152.36,65373,21.75,74356.5,12.33,-13.65,-13.23,0,*48
1500786153.56,65374,21.75,74358.8,12.31,-14.37,-13.73,0,*48
1500786154.81,65375,21.75,74360.5,12.29,-13.47,-13.01,0,*45
1500786156.07,65376,21.75,74358.5,12.29,-12.93,-12.35,0,*48
1500786157.27,65377,21.75,74360.3,12.31,-13.65,-13.15,0,*4B
1500786158.55,65378,21.75,74358.5,12.29,-14.47,-14.05,0,*4C
1500786159.81,65379,21.75,74356.3,12.29,-14.79,-14.19,0,*4D
1500786161.06,65380,21.75,74354.5,12.29,-14.29,-13.87,0,*4E
1500786162.28,65381,21.75,74354.3,12.23,-14.33,-13.83,0,*4A
1500786163.51,65382,21.75,74352.0,12.23,-13.83,-13.47,0,*4D
1500786164.79,65383,21.75,74354.5,12.21,-13.83,-13.29,0,*46
1500786166.02,65384,21.75,74352.8,12.19,-13.43,-12.83,0,*47
1500786167.29,65385,21.75,74354.0,12.21,-14.43,-13.87,0,*4F
1500786168.54,65386,21.75,74352.3,12.21,-14.23,-13.79,0,*4B
1500786169.77,65387,21.75,74352.3,12.19,-13.79,-13.23,0,*46
1500786171.02,65388,21.75,74356.0,12.21,-13.79,-13.15,0,*47
1500786172.27,65389,21.75,74358.3,12.19,-13.79,-13.29,0,*42
1500786173.51,65390,21.75,74358.0,12.19,-13.23,-12.79,0,*41
1500786174.74,65391,21.75,74358.8,12.17,-13.73,-13.19,0,*4C
1500786175.97,65392,21.75,74360.3,12.17,-14.19,-13.69,0,*43
1500786177.2,65393,21.75,74360.5,12.17,-13.47,-12.97,0,*4E
1500786178.46,65394,21.75,74358.8,12.15,-13.01,-12.53,0,*41
1500786179.69,65395,21.75,74358.5,12.15,-13.01,-12.39,0,*4C
1500786180.94,65396,21.75,74360.8,12.17,-13.07,-12.61,0,*46
1500786182.2,65397,21.75,74360.0,12.17,-13.43,-12.83,0,*4B
1500786183.43,65398,21.69,74352.5,12.15,-13.97,-13.65,0,*46
1500786184.64,65399,21.75,74358.0,12.15,-14.19,-13.73,0,*41
1500786185.9,65400,21.75,74358.8,12.13,-14.01,-13.51,0,*49
1500786187.14,65401,21.75,74354.8,12.13,-13.51,-12.97,0,*41
1500786188.39,65402,21.75,74356.3,12.13,-13.15,-12.71,0,*4A
1500786189.64,65403,21.75,74358.0,12.13,-13.93,-13.37,0,*46
1500786190.86,65404,21.75,74352.8,12.13,-13.93,-13.43,0,*42
1500786192.09,65405,21.75,74352.0,12.13,-13.65,-13.15,0,*49
1500786193.33,65406,21.75,74350.8,12.11,-13.23,-12.71,0,*49
1500786194.55,65407,21.75,74352.3,12.11,-13.11,-12.57,0,*4D
1500786195.83,65408,21.75,74352.0,12.09,-13.01,-12.57,0,*4A
1500786197.04,65409,21.75,74352.5,12.11,-13.43,-12.93,0,*4C
1500786198.27,65410,21.75,74354.8,12.11,-12.83,-12.29,0,*48
1500786199.52,65411,21.75,74352.8,12.11,-12.71,-12.15,0,*4B
1500786200.8,65412,21.75,74354.0,12.13,-12.53,-11.97,0,*43
1500786202.03,65413,21.75,74354.0,12.11,-12.79,-12.25,0,*42
1500786203.24,65414,21.75,74354.5,12.11,-12.93,-12.39,0,*4C
1500786204.5,65415,21.75,74352.5,12.13,-12.93,-12.53,0,*43
1500786205.73,65416,21.75,74354.8,12.11,-12.83,-12.29,0,*4E
1500786206.96,65417,21.75,74358.5,12.11,-12.79,-12.29,0,*4A
1500786208.19,65418,21.75,74354.8,12.11,-12.71,-12.25,0,*41
1500786209.47,65419,21.75,74356.5,12.13,-12.15,-11.81,0,*4D
1500786210.72,65420,21.75,74354.8,12.13,-12.25,-11.81,0,*44
1500786211.98,65421,21.75,74352.8,12.11,-12.15,-11.73,0,*49
1500786213.26,65422,21.75,74352.8,12.13,-12.11,-11.67,0,*49
1500786214.51,65423,21.75,74352.3,12.13,-12.29,-11.81,0,*4B
1500786215.76,65424,21.75,74352.5,12.13,-12.43,-12.07,0,*4D
1500786217.04,65425,21.75,74356.5,12.13,-12.53,-11.97,0,*47
1500786218.32,65426,21.75,74354.3,12.13,-12.15,-11.73,0,*4C
1500786219.58,65427,21.75,74352.8,12.13,-11.93,-11.41,0,*41
1500786220.87,65428,21.75,74354.0,12.13,-11.93,-11.67,0,*4A
1500786222.12,65429,21.75,74354.5,12.17,-12.03,-11.63,0,*41
1500786223.38,65430,21.75,74358.3,12.15,-12.11,-11.77,0,*4D
1500786224.63,65431,21.75,74356.5,12.15,-12.35,-11.81,0,*43
1500786225.89,65432,21.75,74358.8,12.15,-12.07,-11.63,0,*4D
1500786227.17,65433,21.75,74356.0,12.17,-11.85,-11.51,0,*46
1500786228.41,65434,21.75,74358.8,12.15,-12.21,-11.89,0,*4B
1500786229.69,65435,21.75,74356.3,12.17,-11.89,-11.51,0,*4C
1500786230.94,65436,21.75,74356.3,12.17,-11.73,-11.23,0,*4F
1500786232.16,65437,21.75,74358.8,12.15,-11.81,-11.41,0,*45
1500786233.45,65438,21.75,74358.3,12.17,-11.97,-11.63,0,*4F
1500786234.72,65439,21.75,74358.3,12.17,-11.73,-11.37,0,*45
1500786235.99,65440,21.75,74356.3,12.17,-11.73,-11.33,0,*4F
1500786237.27,65441,21.75,74358.0,12.21,-11.67,-11.29,0,*45
1500786238.53,65442,21.75,74356.8,12.19,-11.85,-11.55,0,*4A
1500786239.78,65443,21.75,74356.3,12.21,-11.81,-11.45,0,*45
1500786241.05,65444,21.75,74356.5,12.21,-11.73,-11.29,0,*45
1500786242.3,65445,21.75,74356.8,12.21,-11.81,-11.41,0,*47
1500786243.56,65446,21.75,74356.5,12.23,-11.85,-11.63,0,*42
1500786244.82,65447,21.75,74354.0,12.23,-11.93,-11.55,0,*41
1500786246.07,65448,21.75,74354.0,12.23,-11.97,-11.77,0,*4A
1500786247.3,65449,21.75,74356.3,12.23,-12.21,-11.81,0,*4C
1500786248.52,65450,21.75,74354.5,12.23,-11.81,-11.41,0,*41
1500786249.76,65451,21.75,74356.0,12.23,-11.67,-11.41,0,*48
1500786250.98,65452,21.75,74356.0,12.23,-11.63,-11.23,0,*4B
1500786252.21,65453,21.75,74356.8,12.23,-11.51,-11.23,0,*4B
1500786253.47,65454,21.75,74360.5,12.27,-11.37,-11.07,0,*4E
1500786254.67,65455,21.75,74358.8,12.23,-11.41,-11.15,0,*49
1500786255.92,65456,21.75,74358.3,12.23,-11.81,-11.51,0,*46
1500786257.15,65457,21.75,74362.8,12.27,-12.03,-11.63,0,*4B
1500786258.39,65458,21.75,74358.8,12.23,-12.53,-12.21,0,*40
1500786259.62,65459,21.75,74360.0,12.23,-12.47,-12.11,0,*47
1500786260.84,65460,21.75,74358.0,12.23,-12.39,-12.07,0,*43
1500786262.1,65461,21.75,74354.5,12.23,-12.11,-11.89,0,*4D
1500786263.33,65462,21.75,74354.5,12.23,-12.75,-12.39,0,*44
1500786264.53,65463,21.75,74358.3,12.23,-12.89,-12.47,0,*4F
1500786265.79,65464,21.75,74354.5,12.23,-12.75,-12.35,0,*4E
1500786267.04,65465,21.75,74356.0,12.21,-12.71,-12.39,0,*45
1500786268.3,65466,21.75,74358.8,12.19,-12.83,-12.53,0,*4C
1500786269.55,65467,21.75,74362.0,12.21,-12.65,-12.25,0,*4F
1500786270.78,65468,21.75,74362.8,12.19,-12.65,-12.25,0,*4B
1500786272.01,65469,21.75,74366.3,12.19,-12.43,-12.15,0,*4D
1500786273.26,65470,21.75,74360.0,12.19,-11.81,-11.55,0,*4F
1500786274.51,65471,21.75,74364.3,12.21,-11.81,-11.45,0,*44
1500786275.78,65472,21.75,74364.3,12.21,-11.67,-11.33,0,*4E
1500786277.06,65473,21.75,74364.3,12.21,-11.97,-11.67,0,*41
1500786278.32,65474,21.75,74356.3,12.19,-12.53,-12.15,0,*40
1500786279.55,65475,21.75,74364.8,12.19,-12.71,-12.25,0,*42
1500786280.83,65476,21.75,74362.3,12.21,-11.97,-11.67,0,*44
1500786282.1,65477,21.75,74362.3,12.21,-11.85,-11.59,0,*4B
1500786283.38,65478,21.75,74362.0,12.21,-11.85,-11.67,0,*49
1500786284.66,65479,21.75,74358.5,12.21,-12.53,-12.15,0,*46
1500786285.92,65480,21.75,74360.0,12.19,-12.15,-11.93,0,*44
1500786287.18,65481,21.75,74354.8,12.19,-12.15,-11.85,0,*42
1500786288.39,65482,21.75,74360.0,12.19,-12.29,-12.03,0,*43
1500786289.62,65483,21.75,74356.8,12.19,-12.93,-12.57,0,*42
1500786290.85,65484,21.75,74358.5,12.19,-13.11,-12.79,0,*42
1500786292.14,65485,21.75,74358.0,12.17,-12.71,-12.35,0,*42
1500786293.37,65486,21.75,74356.5,12.15,-12.25,-11.93,0,*4D
1500786294.63,65487,21.75,74356.3,12.17,-12.29,-12.07,0,*4C
1500786295.91,65488,21.75,74358.0,12.17,-12.35,-12.15,0,*4D
1500786297.19,65489,21.75,74354.0,12.17,-12.07,-11.97,0,*44
1500786298.47,65490,21.75,74352.0,12.17,-13.01,-12.61,0,*41
1500786299.7,65491,21.75,74358.8,12.15,-12.75,-12.47,0,*44
1500786300.98,65492,21.75,74356.3,12.17,-12.15,-11.85,0,*4E
1500786302.22,65493,21.75,74360.0,12.15,-12.25,-12.07,0,*47
1500786303.43,65494,21.75,74358.0,12.15,-12.21,-12.03,0,*40
1500786304.66,65495,21.75,74356.5,12.15,-12.39,-12.07,0,*4C
1500786305.92,65496,21.75,74360.5,12.15,-11.89,-11.67,0,*42
1500786307.18,65497,21.75,74358.0,12.15,-12.11,-11.89,0,*41
1500786308.43,65498,21.75,74360.0,12.15,-12.35,-12.11,0,*4A
1500786309.68,65499,21.75,74360.0,12.17,-12.43,-12.15,0,*4C
1500786310.91,65500,21.75,74356.0,12.15,-12.61,-12.25,0,*4C
1500786312.17,65501,21.75,74352.8,12.15,-12.65,-12.53,0,*48
1500786313.43,65502,21.75,74356.5,12.15,-12.11,-11.89,0,*4C
1500786314.68,65503,21.75,74356.3,12.15,-11.67,-11.55,0,*4E
1500786315.94,65504,21.75,74354.5,12.13,-12.25,-11.97,0,*44
1500786317.2,65505,21.75,74354.3,12.15,-12.11,-11.89,0,*4B
1500786318.42,65506,21.75,74358.5,12.15,-12.03,-11.77,0,*4A
1500786319.7,65507,21.75,74358.3,12.13,-11.85,-11.67,0,*41
1500786320.93,65508,21.75,74356.3,12.13,-12.39,-12.29,0,*43
1500786322.19,65509,21.75,74354.3,12.15,-12.07,-11.81,0,*48
1500786323.44,65510,21.75,74354.0,12.15,-12.11,-11.93,0,*44
1500786324.66,65511,21.75,74354.8,12.15,-12.21,-12.03,0,*4C
1500786325.91,65512,21.75,74356.5,12.15,-11.89,-11.77,0,*4E
1500786327.17,65513,21.75,74356.5,12.15,-11.89,-11.67,0,*4E
1500786328.4,65514,21.75,74358.3,12.15,-11.51,-11.41,0,*48
1500786329.6,65515,21.75,74356.0,12.15,-12.43,-12.21,0,*4C
1500786330.83,65516,21.75,74360.3,12.15,-13.33,-13.23,0,*4A
1500786332.07,65517,21.75,74352.3,12.15,-13.73,-13.61,0,*49
1500786333.3,65518,21.75,74352.3,12.11,-13.97,-13.93,0,*45
1500786334.54,65519,21.75,74352.5,12.11,-14.15,-14.01,0,*45
1500786335.8,65520,21.75,74352.5,12.07,-14.05,-14.01,0,*49
1500786337.06,65521,21.75,74348.3,12.07,-14.05,-14.05,0,*4C
1500786338.32,65522,21.75,74348.0,12.05,-14.47,-14.33,0,*4E
1500786339.55,65523,21.75,74354.3,12.01,-14.37,-14.29,0,*47
1500786340.79,65524,21.75,74354.3,11.97,-14.29,-14.15,0,*4C
1500786342.01,65525,21.75,74352.3,11.97,-13.47,-13.43,0,*46
1500786343.27,65526,21.75,74356.8,11.97,-12.97,-12.71,0,*49
1500786344.52,65527,21.75,74354.5,11.97,-12.57,-12.47,0,*41
1500786345.75,65528,21.75,74358.5,11.97,-12.43,-12.29,0,*43
1500786346.99,65529,21.75,74358.3,11.97,-12.25,-12.03,0,*4A
1500786348.26,65530,21.75,74358.5,11.97,-11.97,-11.85,0,*45
1500786349.52,65531,21.75,74358.8,11.99,-12.07,-11.93,0,*47
1500786350.76,65532,21.75,74356.0,11.99,-12.21,-12.07,0,*4E
1500786352.02,65533,21.75,74358.0,11.99,-12.79,-12.57,0,*47
1500786353.27,65534,21.75,74354.8,11.97,-12.89,-12.83,0,*48
1500786354.56,65535,21.75,74352.3,11.97,-12.75,-12.75,0,*43
1500786355.79,0,21.75,74356.3,11.97,-12.29,-12.15,0,*4C
1500786357.02,1,21.75,74356.3,11.97,-12.57,-12.43,0,*47
1500786358.28,2,21.75,74356.3,11.97,-13.01,-12.83,0,*4A
1500786359.51,3,21.75,74356.3,11.95,-13.19,-13.01,0,*4B
1500786360.74,4,21.75,74358.8,11.95,-12.89,-12.61,0,*43
1500786362.0,5,21.75,74356.5,11.95,-12.75,-12.53,0,*40
1500786363.2,6,21.75,74354.8,11.93,-12.61,-12.39,0,*4C
1500786364.44,7,21.75,74356.5,11.95,-12.29,-12.15,0,*49
1500786365.67,8,21.75,74354.8,11.95,-12.47,-12.35,0,*4C
1500786366.91,9,21.75,74358.0,11.95,-12.53,-12.39,0,*44
1500786368.13,10,21.75,74358.8,11.95,-12.29,-12.21,0,*78
1500786369.36,11,21.75,74358.8,11.93,-12.35,-12.15,0,*75
1500786370.61,12,21.75,74358.5,11.95,-12.15,-12.03,0,*75
1500786371.84,13,21.75,74354.5,11.93,-11.77,-11.67,0,*74
1500786373.1,14,21.75,74358.3,11.95,-11.81,-11.67,0,*7C
1500786374.34,15,21.75,74358.8,11.93,-12.35,-12.15,0,*71
1500786375.57,16,21.75,74358.3,11.95,-12.29,-12.15,0,*79
1500786376.81,17,21.75,74358.0,11.97,-12.03,-11.85,0,*78
1500786378.05,18,21.75,74358.0,11.95,-12.61,-12.47,0,*7C
1500786379.26,19,21.75,74358.8,11.95,-12.47,-12.29,0,*71
1500786380.53,20,21.75,74360.0,11.95,-11.77,-11.55,0,*73
1500786381.76,21,21.75,74362.3,11.93,-11.67,-11.67,0,*74
1500786382.99,22,21.75,74358.3,11.95,-12.03,-11.81,0,*78
1500786384.24,23,21.75,74362.3,11.95,-12.07,-12.03,0,*74
1500786385.46,24,21.75,74360.8,11.95,-12.21,-12.03,0,*77
1500786386.72,25,21.75,74358.5,11.97,-12.11,-11.97,0,*79
1500786387.98,26,21.75,74356.3,11.97,-11.89,-11.85,0,*7B
1500786389.2,27,21.75,74356.5,11.99,-11.41,-11.37,0,*79
1500786390.43,28,21.75,74360.5,11.97,-11.45,-11.33,0,*78
1500786391.63,29,21.75,74360.8,11.99,-11.45,-11.45,0,*76
1500786392.89,30,21.75,74362.0,11.97,-11.73,-11.73,0,*70
1500786394.13,31,21.75,74358.3,11.99,-11.55,-11.29,0,*74
1500786395.32,32,21.75,74358.0,11.99,-11.41,-11.23,0,*78
1500786396.54,33,21.75,74360.0,11.99,-11.41,-11.29,0,*73
1500786397.75,34,21.75,74360.8,11.99,-11.37,-11.23,0,*7F
1500786398.99,35,21.75,74360.3,12.01,-11.45,-11.37,0,*7C
1500786400.26,36,21.75,74358.8,12.01,-11.93,-11.81,0,*79
1500786401.5,37,21.75,74356.8,12.01,-12.25,-11.97,0,*71
1500786402.72,38,21.75,74364.0,11.99,-11.59,-11.41,0,*7F
1500786403.96,39,21.75,74360.0,11.99,-11.59,-11.59,0,*77
1500786405.22,40,21.75,74360.0,12.01,-11.73,-11.73,0,*7B
1500786406.47,41,21.75,74362.3,12.01,-12.21,-11.93,0,*70
1500786407.74,42,21.75,74360.5,12.01,-12.65,-12.53,0,*7C
1500786408.95,43,21.75,74360.5,12.01,-12.39,-12.29,0,*79
1500786410.23,44,21.75,74360.5,12.01,-12.71,-12.71,0,*7F
1500786411.41,45,21.75,74362.8,11.99,-12.43,-12.29,0,*70
1500786412.63,46,21.75,74362.8,11.97,-12.29,-12.03,0,*79
1500786413.87,47,21.75,74362.0,11.97,-12.29,-12.15,0,*7F
1500786415.13,48,21.75,74362.3,11.97,-12.35,-12.15,0,*7D
1500786416.37,49,21.75,74362.3,11.97,-12.97,-12.75,0,*72
1500786417.61,50,21.75,74362.8,11.99,-12.65,-12.53,0,*7D
1500786418.86,51,21.75,74360.0,11.97,-12.29,-12.11,0,*7C
1500786420.09,52,21.75,74360.8,11.97,-12.25,-12.15,0,*77
1500786421.36,53,21.75,74360.0,11.97,-12.11,-11.97,0,*78
1500786422.6,54,21.75,74362.3,11.97,-12.47,-12.35,0,*77
1500786423.81,55,21.75,74358.0,11.95,-12.39,-12.25,0,*7C
1500786425.04,56,21.75,74360.8,11.95,-12.39,-12.15,0,*7C
1500786426.28,57,21.75,74360.0,11.95,-12.65,-12.39,0,*7A
1500786427.46,58,21.75,74356.8,11.93,-12.39,-12.39,0,*7A
1500786428.71,59,21.75,74362.8,11.95,-12.35,-12.29,0,*70
1500786429.95,60,21.75,74360.3,11.95,-12.89,-12.79,0,*78
1500786431.15,61,21.75,74360.0,11.93,-13.47,-13.61,0,*74
1500786432.36,62,21.75,74356.5,11.91,-13.19,-12.93,0,*72
1500786433.6,63,21.75,74358.8,11.91,-12.93,-12.79,0,*74
1500786434.78,64,21.75,74362.3,11.89,-12.43,-12.39,0,*73
1500786436.04,65,21.75,74356.8,11.91,-12.57,-12.53,0,*72
1500786437.28,66,21.75,74356.5,11.89,-12.71,-12.57,0,*78
1500786438.48,67,21.75,74358.0,11.91,-12.39,-12.21,0,*7D
1500786439.69,68,21.75,74358.8,11.91,-12.39,-12.21,0,*72
1500786440.93,69,21.75,74356.3,11.89,-12.75,-12.61,0,*76
1500786442.11,70,21.75,74358.0,11.89,-12.47,-12.39,0,*72
1500786443.32,71,21.75,74358.0,11.89,-12.29,-12.15,0,*75
1500786444.53,72,21.75,74356.8,11.89,-12.03,-11.85,0,*74
1500786445.74,73,21.75,74358.3,11.89,-12.03,-11.89,0,*79
1500786446.97,74,21.75,74358.8,11.89,-11.85,-11.73,0,*76
1500786448.18,75,21.75,74358.8,11.89,-11.63,-11.45,0,*7A
1500786449.41,76,21.75,74358.5,11.89,-11.89,-11.73,0,*78
1500786450.65,77,21.75,74356.5,11.89,-12.11,-11.97,0,*71
1500786451.88,78,21.75,74356.5,11.89,-12.11,-11.89,0,*71
1500786453.11,79,21.75,74356.5,11.89,-11.73,-11.55,0,*76
1500786454.35,80,21.75,74356.3,11.91,-11.41,-11.37,0,*7C
1500786455.6,81,21.75,74362.3,11.91,-11.59,-11.51,0,*74
1500786456.86,82,21.75,74360.8,11.91,-11.67,-11.59,0,*72
1500786458.07,83,21.75,74362.3,11.89,-12.03,-11.85,0,*7A
1500786459.31,84,21.75,74362.3,11.91,-12.21,-12.07,0,*7D
1500786460.49,85,21.75,74362.8,11.89,-12.43,-12.29,0,*7D
1500786461.7,86,21.75,74360.5,11.89,-12.29,-12.15,0,*7D
1500786462.91,87,21.75,74362.3,11.89,-12.03,-11.97,0,*7D
1500786464.11,88,21.75,74364.8,11.91,-12.43,-12.25,0,*75
1500786465.32,89,21.75,74360.8,11.89,-12.25,-12.15,0,*7E
1500786466.53,90,21.75,74360.8,11.89,-12.25,-12.11,0,*72
1500786467.77,91,21.75,74360.5,11.89,-12.11,-11.89,0,*76
1500786469.04,92,21.75,74360.8,11.87,-12.11,-11.89,0,*7B
1500786470.27,93,21.75,74366.0,11.89,-11.89,-11.73,0,*73
1500786471.5,94,21.75,74362.8,11.89,-11.97,-11.77,0,*7F
1500786472.73,95,21.75,74362.3,11.89,-11.97,-11.85,0,*73
1500786473.97,96,21.75,74360.8,11.89,-11.85,-11.73,0,*7A
1500786475.22,97,21.75,74360.5,11.91,-11.81,-11.67,0,*73
1500786476.45,98,21.75,74362.5,11.89,-11.97,-11.77,0,*73
1500786477.66,99,21.75,74364.0,11.89,-11.59,-11.41,0,*75
1500786478.88,100,21.75,74360.8,11.91,-11.41,-11.23,0,*40
1500786480.15,101,21.75,74364.0,11.91,-11.93,-11.59,0,*43
1500786481.39,102,21.75,74366.0,11.89,-12.15,-11.97,0,*46
1500786482.66,103,21.75,74364.0,11.91,-12.53,-12.35,0,*47
1500786483.87,104,21.75,74364.0,11.89,-12.75,-12.47,0,*48
1500786485.09,105,21.75,74360.0,11.89,-12.57,-12.43,0,*4D
1500786486.33,106,21.75,74362.5,11.89,-13.01,-12.83,0,*40
1500786487.59,107,21.75,74358.8,11.87,-12.83,-12.61,0,*48
1500786488.81,108,21.75,74360.3,11.87,-13.11,-12.89,0,*4B
1500786490.05,109,21.75,74362.5,11.85,-12.79,-12.65,0,*45
1500786491.28,110,21.75,74364.0,11.85,-12.21,-12.07,0,*44
1500786492.48,111,21.75,74358.8,11.85,-12.21,-12.03,0,*41
1500786493.73,112,21.75,74362.8,11.85,-12.07,-11.89,0,*47
1500786494.94,113,21.75,74362.0,11.85,-12.03,-11.77,0,*43
1500786496.18,114,21.75,74358.5,11.81,-12.07,-11.73,0,*40
1500786497.43,115,21.75,74360.3,11.81,-11.93,-11.73,0,*4F
1500786498.67,116,21.75,74360.8,11.81,-11.81,-11.63,0,*4E
1500786499.92,117,21.75,74362.0,11.85,-12.15,-11.89,0,*41
1500786501.19,118,21.75,74360.0,11.87,-12.11,-11.85,0,*44
1500786502.44,119,21.75,74362.0,11.85,-12.53,-12.35,0,*49
1500786503.66,120,21.75,74364.5,11.85,-12.35,-12.03,0,*46